Location: Campestrin
(46.4667°N, 11.7167°E)
Time: 15:25:19
(UTC+00:00)

Cosmos 1269 Rocket - Pass Details

Date: 18 April 2021
Orbit: 772 x 779 km, 74.1° (Epoch: 07 May)

Event Time Altitude Azimuth Distance (km) Brightness Sun altitude
Rises 18:27:31 0° 196° (SSW) 3,246 7.2 -4.5°
Reaches altitude 10° 18:29:53 10° 195° (SSW) 2,324 6.4 -4.9°
Maximum altitude 18:35:10 78° 110° (ESE) 801 4.0 -5.7°
Drops below altitude 10° 18:40:29 10° 24° (NNE) 2,342 6.5 -6.5°
Sets 18:42:53 0° 23° (NNE) 3,274 7.3 -6.9°
